This demonstration page uses our WeatherBlox Daily Observations layout. Learn more.

Left ArrowRight Arrow

38.89511, -77.03637

Hourly Observations for November 7, 2015

Temp ( °F °C ) Dew Point ( °F °C ) Humidity (%) Winds ( mph kmh ) Pressure ( in mb ) Visibility ( mi km ) Precip ( " mm )
12:52 am 00:52 Partly Cloudy 67 19.4 58 14.4 73 73 SSW 3 6 30.01 1016 10 16 N/A
1:52 am 01:52 Mostly Cloudy 64 17.8 59 15 84 84 S 7 11 30.01 1016 10 16 N/A
2:52 am 02:52 Mostly Cloudy 64 17.8 58 14.4 81 81 S 6 9 30.01 1016 10 16 N/A
3:52 am 03:52 Mostly Cloudy 62 16.7 58 14.4 86 86 SW 5 7 30.02 1017 10 16 N/A
4:52 am 04:52 Cloudy 63 17.2 60 15.6 90 90 S 5 7 30.03 1017 10 16 N/A
5:52 am 05:52 Cloudy 64 17.8 61 16.1 90 90 SSW 3 6 30.03 1017 10 16 N/A
6:52 am 06:52 Cloudy 64 17.8 61 16.1 90 90 SSW 6 9 30.04 1017 10 16 N/A
7:06 am 07:06 Cloudy with Light Rain 63 17 61 16 94 94 S 6 9 30.06 1018 10 16 N/A
7:52 am 07:52 Cloudy 65 18.3 60 15.6 84 84 S 3 6 30.07 1018 10 16 N/A
8:52 am 08:52 Cloudy 66 18.9 63 17.2 90 90 N N/A 30.09 1019 10 16 N/A
9:52 am 09:52 Cloudy with Light Rain 66 18.9 57 13.9 73 73 NNW 12 19 30.10 1019 10 16 N/A
9:57 am 09:57 Cloudy with Light Rain 66 18.9 56 13.3 70 70 NW 10 17 30.09 1019 10 16 N/A
10:52 am 10:52 Cloudy with Light Rain 62 16.7 56 13.3 80 80 NNW 9 15 30.12 1020 7 11 0.02 0.51
11:52 am 11:52 Cloudy with Light Rain 59 15 52 11.1 78 78 N 8 13 30.10 1019 10 16 0.03 0.76
12:52 pm 12:52 Cloudy with Light Rain 57 13.9 51 10.6 81 81 N 9 15 30.07 1018 10 16 0.05 1.27
1:52 pm 13:52 Cloudy with Light Rain 57 13.9 51 10.6 81 81 NNW 7 11 30.06 1018 10 16 0.01 0.25
2:52 pm 14:52 Cloudy 58 14.4 47 8.3 67 67 NNW 8 13 30.07 1018 10 16 N/A
3:52 pm 15:52 Cloudy 57 13.9 46 7.8 67 67 NNW 8 13 30.08 1019 10 16 N/A
4:52 pm 16:52 Cloudy 57 13.9 44 6.7 62 62 NNW 8 13 30.09 1019 10 16 N/A
5:52 pm 17:52 Cloudy 56 13.3 43 6.1 62 62 NNW 7 11 30.13 1020 10 16 N/A
6:52 pm 18:52 Cloudy 57 13.9 42 5.6 58 58 N 8 13 30.16 1021 10 16 N/A
7:52 pm 19:52 Cloudy 57 13.9 41 5 55 55 NNW 10 17 30.19 1022 10 16 N/A
8:52 pm 20:52 Cloudy 57 13.9 40 4.4 53 53 NNW 8 13 30.19 1022 10 16 N/A
9:52 pm 21:52 Mostly Cloudy 56 13.3 38 3.3 51 51 NW 8 13 30.21 1023 10 16 N/A
10:52 pm 22:52 Mostly Cloudy 56 13.3 37 2.8 49 49 NW 12 19 30.24 1024 10 16 N/A
11:52 pm 23:52 Partly Cloudy 54 12.2 37 2.8 53 53 NW 13 20 30.26 1025 10 16 N/A

Powered by AerisWeather